Temp
14 15 15 14 13 13 13 13 13 13 13 12 12 11 11 11 11 11 11 11 11 11 11 11 11 11 11 11 11 11 11 12 12 12 12 12 12 12 12 12 12 12
14 15 15 14 13 13 13 13 13 13 12 12 12 11 11 11 11 11 11 11 11 11 11 11 11 11 11 11 11 11 11 12 12 12 12 13 13 12 12 12 12 12
14 14 14 13 13 13 13 13 13 12 12 12 12 12 12 11 11 11 11 11 11 11 11 11 11 11 11 11 11 11 11 11 12 12 12 12 12 12 12 12 12 12
13 13 13 13 13 13 13 14 13 13 12 12 11 11 12 12 12 11 11 12 12 12 12 11 11 11 10 11 11 11 11 12 12 12 12 12 12 12 11 11 11 11
13 13 13 13 13 13 14 14 13 13 12 11 11 11 12 12 12 12 12 12 12 12 12 11 11 11 10 11 11 12 12 12 12 12 12 12 12 12 11 11 11 12
12 12 12 13 13 14 14 13 13 13 12 12 12 11 11 12 11 12 12 12 12 12 12 12 11 11 11 11 11 11 12 12 12 12 12 12 12 12 11 11 12 12
12 12 12 13 13 13 13 13 13 12 12 12 12 11 11 11 11 11 11 11 11 11 11 11 11 11 11 11 11 11 11 12 11 12 12 12 12 12 11 12 12 12
12 12 12 13 13 13 13 13 13 12 12 12 11 11 11 11 11 11 11 11 11 11 11 11 11 11 11 11 11 11 11 11 11 12 12 12 12 12 12 12 13 13
12 12 12 13 13 13 13 13 12 12 13 12 11 11 11 11 11 11 11 11 11 11 11 11 11 11 11 11 12 12 11 11 11 12 12 12 12 12 13 13 13 13
12 12 12 13 12 12 12 12 12 12 13 12 12 12 11 11 11 11 11 11 11 11 11 11 11 12 12 12 12 12 12 12 12 12 13 12 12 12 12 13 13 13
12 11 12 12 12 12 12 12 11 12 12 12 12 12 11 11 11 11 11 11 11 11 11 11 12 12 13 13 13 13 13 13 13 13 13 12 12 12 12 12 13 13
11 11 11 11 11 12 11 11 11 11 11 11 11 11 11 11 11 11 11 11 11 12 11 11 12 12 13 13 13 13 13 13 13 13 13 13 12 12 12 12 12 12
11 11 11 11 11 11 11 11 11 11 11 11 11 11 11 11 11 11 12 12 12 12 12 12 12 12 12 12 13 13 13 13 13 13 13 13 13 13 12 12 12 12
11 11 11 11 11 11 11 11 11 11 11 11 11 11 11 11 11 11 12 12 12 12 12 12 12 12 12 11 12 12 13 13 13 13 13 13 12 12 12 12 11 11
11 11 11 11 11 11 11 11 11 11 11 11 11 11 11 11 11 11 12 12 12 12 12 12 12 12 11 11 11 12 12 12 12 12 12 12 12 12 11 11 10 10
11 11 11 11 11 11 11 11 11 11 11 11 11 11 11 11 11 11 11 12 12 12 12 12 12 12 11 11 11 11 11 11 12 12 12 11 11 11 10 10 10 10
11 11 11 11 11 11 11 11 11 11 11 11 11 11 11 11 11 11 11 11 12 12 12 12 12 11 11 11 11 11 11 11 11 11 11 11 10 10 10 10 10 10
11 11 11 11 11 11 11 11 11 11 11 11 11 11 11 11 11 11 11 11 11 11 11 11 11 11 11 11 11 11 11 11 11 11 11 10 10 10 9 9 9 10
11 11 11 11 11 11 11 11 11 11 10 11 11 11 11 11 11 11 11 11 11 11 11 11 11 11 11 11 11 11 11 11 11 11 11 11 10 10 9 9 9 10
11 11 11 11 11 10 11 11 11 11 11 11 11 11 11 11 11 11 11 11 11 11 11 11 11 11 11 11 11 11 11 11 10 10 10 10 10 10 9 9 9 9
11 11 11 11 11 10 10 10 10 10 10 10 10 10 10 10 11 11 11 11 11 11 11 10 10 10 11 11 11 11 11 11 10 10 10 10 9 9 9 9 9 9
10 10 10 10 11 11 10 10 10 10 10 10 10 10 10 10 10 10 11 11 11 11 10 10 10 10 10 11 11 11 11 11 10 10 10 9 9 9 9 9 9 9
9 9 9 10 10 10 10 11 10 10 10 10 10 10 10 10 10 10 10 10 10 10 10 10 10 10 10 10 10 10 10 10 10 10 10 9 9 8 8 8 9 8
8 9 9 9 9 10 10 10 10 10 10 10 10 10 10 10 10 10 10 10 10 10 10 10 10 9 9 9 9 10 10 10 10 9 9 9 9 8 8 8 8 8
8 8 8 8 9 9 9 9 9 9 10 10 10 10 10 10 10 10 10 10 10 9 9 9 9 9 9 9 10 9 9 9 9 9 9 8 8 8 8 8 8 8
8 8 8 8 8 8 9 9 9 9 9 9 10 10 10 10 10 10 10 9 9 9 9 9 9 9 9 9 9 9 9 9 8 8 8 8 8 8 8 8 8 8
Height
1528 1529 1531 1532 1534 1534 1535 1536 1537 1538 1538 1538 1537 1536 1536 1536 1536 1536 1536 1536 1536 1536 1536 1537 1538 1539 1540 1540 1540 1541 1541 1542 1543 1544 1545 1546 1547 1547 1548 1550 1551 1552
1528 1529 1530 1532 1533 1534 1535 1535 1536 1537 1538 1537 1536 1535 1535 1535 1535 1535 1535 1536 1536 1536 1536 1537 1538 1539 1540 1540 1541 1541 1542 1543 1544 1544 1545 1546 1547 1548 1549 1551 1552 1552
1527 1528 1529 1531 1532 1533 1534 1534 1535 1536 1536 1536 1535 1534 1534 1534 1535 1535 1535 1536 1535 1536 1537 1538 1539 1539 1540 1541 1541 1542 1542 1543 1544 1545 1546 1547 1548 1550 1551 1552 1553 1553
1526 1527 1529 1530 1531 1532 1533 1533 1534 1535 1535 1535 1534 1533 1533 1534 1535 1535 1535 1535 1535 1536 1537 1538 1539 1540 1540 1541 1542 1542 1543 1543 1544 1545 1546 1547 1548 1550 1551 1552 1553 1553
1524 1526 1528 1530 1530 1531 1532 1533 1533 1533 1534 1534 1533 1533 1533 1534 1534 1535 1535 1535 1535 1535 1536 1537 1539 1540 1541 1541 1542 1543 1543 1544 1545 1545 1546 1547 1548 1550 1551 1552 1553 1554
1523 1525 1527 1528 1529 1530 1531 1532 1532 1532 1533 1533 1532 1532 1533 1533 1534 1535 1535 1535 1534 1535 1535 1536 1538 1539 1540 1541 1542 1543 1544 1545 1545 1546 1547 1548 1549 1550 1551 1552 1553 1554
1521 1523 1525 1526 1528 1529 1530 1531 1531 1531 1532 1532 1532 1532 1532 1533 1534 1535 1535 1535 1534 1534 1535 1536 1537 1538 1540 1541 1542 1543 1544 1545 1546 1547 1547 1548 1549 1551 1552 1553 1553 1554
1520 1521 1523 1525 1526 1528 1529 1530 1530 1531 1531 1531 1531 1532 1532 1534 1535 1535 1535 1535 1535 1535 1535 1536 1537 1538 1540 1541 1542 1543 1544 1546 1547 1547 1548 1548 1549 1550 1551 1552 1553 1554
1519 1520 1521 1523 1525 1527 1528 1528 1529 1530 1530 1531 1531 1532 1532 1534 1535 1535 1535 1535 1535 1536 1536 1537 1537 1538 1539 1540 1541 1543 1544 1545 1546 1547 1548 1549 1549 1550 1551 1552 1553 1554
1517 1518 1520 1522 1524 1525 1526 1527 1528 1529 1529 1530 1531 1531 1532 1534 1534 1535 1535 1536 1536 1536 1537 1537 1538 1538 1539 1540 1541 1542 1543 1545 1546 1547 1548 1549 1550 1551 1551 1552 1553 1554
1516 1517 1519 1521 1522 1524 1525 1526 1527 1528 1529 1530 1531 1531 1532 1533 1534 1535 1536 1536 1537 1537 1538 1538 1539 1539 1540 1540 1541 1542 1543 1545 1546 1548 1549 1550 1551 1551 1552 1552 1553 1554
1514 1516 1518 1520 1521 1523 1524 1526 1526 1527 1529 1530 1531 1532 1532 1533 1534 1535 1536 1537 1537 1538 1538 1539 1539 1540 1541 1541 1542 1543 1544 1545 1546 1548 1549 1550 1551 1551 1552 1553 1553 1554
1514 1516 1518 1519 1520 1522 1524 1525 1526 1527 1529 1530 1532 1532 1533 1533 1534 1535 1536 1537 1537 1538 1539 1539 1540 1541 1541 1542 1543 1543 1544 1545 1546 1547 1548 1549 1550 1551 1552 1553 1553 1554
1513 1515 1517 1518 1519 1521 1522 1524 1524 1526 1527 1528 1530 1532 1533 1533 1534 1535 1536 1537 1538 1538 1539 1540 1540 1541 1542 1542 1543 1543 1544 1545 1546 1547 1548 1548 1549 1550 1551 1552 1553 1555
1513 1515 1516 1517 1518 1519 1521 1522 1523 1523 1524 1525 1527 1529 1532 1533 1534 1535 1536 1536 1537 1538 1539 1540 1540 1541 1542 1543 1543 1543 1544 1544 1545 1546 1547 1548 1548 1549 1550 1552 1553 1554
1514 1515 1516 1517 1518 1519 1520 1521 1522 1523 1524 1524 1525 1526 1529 1531 1533 1534 1535 1535 1536 1537 1539 1539 1540 1541 1542 1543 1543 1543 1544 1544 1544 1545 1546 1547 1547 1548 1549 1551 1551 1552
1515 1515 1516 1517 1518 1518 1519 1521 1522 1522 1524 1525 1525 1526 1527 1529 1531 1533 1533 1534 1535 1536 1537 1538 1539 1540 1541 1542 1542 1542 1542 1543 1543 1545 1545 1546 1546 1547 1547 1547 1547 1549
1516 1517 1517 1518 1518 1519 1520 1520 1522 1522 1523 1524 1525 1525 1526 1528 1529 1531 1532 1533 1534 1534 1536 1537 1537 1538 1539 1539 1540 1541 1541 1541 1542 1543 1543 1544 1545 1545 1544 1544 1546 1549
1518 1518 1518 1519 1519 1519 1520 1520 1521 1522 1522 1523 1524 1525 1525 1526 1528 1530 1531 1532 1532 1533 1534 1535 1535 1536 1537 1538 1538 1539 1539 1540 1540 1540 1541 1542 1543 1542 1542 1543 1546 1548
1519 1519 1519 1520 1520 1520 1520 1520 1520 1521 1522 1523 1524 1525 1525 1526 1528 1529 1529 1530 1530 1531 1532 1533 1533 1534 1535 1536 1536 1537 1537 1538 1538 1539 1539 1540 1540 1540 1540 1541 1543 1544
1521 1521 1521 1521 1521 1521 1521 1520 1520 1521 1521 1522 1522 1523 1524 1525 1526 1527 1527 1528 1529 1529 1530 1530 1530 1531 1533 1533 1534 1535 1536 1536 1536 1537 1537 1537 1537 1538 1539 1540 1540 1541
1521 1521 1521 1522 1522 1522 1522 1522 1521 1521 1521 1521 1521 1521 1522 1522 1524 1524 1525 1526 1526 1527 1528 1528 1527 1528 1530 1531 1532 1532 1533 1533 1534 1534 1535 1535 1535 1535 1537 1538 1538 1538
1521 1521 1521 1520 1521 1522 1522 1521 1521 1521 1521 1521 1520 1520 1520 1520 1521 1521 1522 1523 1523 1524 1525 1525 1524 1525 1527 1529 1529 1530 1530 1530 1531 1531 1531 1532 1532 1532 1533 1534 1534 1535
1521 1521 1520 1519 1519 1520 1521 1520 1520 1520 1520 1520 1520 1519 1519 1519 1519 1519 1520 1520 1520 1521 1522 1522 1522 1523 1525 1527 1527 1527 1527 1527 1527 1528 1528 1529 1529 1530 1530 1530 1531 1532
1519 1520 1519 1519 1518 1519 1519 1519 1520 1519 1519 1519 1519 1518 1518 1518 1518 1518 1518 1518 1518 1519 1520 1520 1520 1521 1522 1523 1523 1523 1523 1524 1524 1525 1525 1526 1527 1528 1528 1528 1529 1530
1519 1519 1519 1518 1517 1517 1518 1518 1518 1518 1517 1517 1517 1517 1517 1516 1516 1515 1515 1515 1515 1516 1516 1516 1517 1519 1519 1519 1519 1519 1520 1520 1521 1521 1522 1523 1524 1526 1527 1527 1527 1528
Wind_Speed
18 15 15 12 11 10 9 8 7 5 5 7 8 8 9 8 7 9 10 10 9 7 8 8 11 14 14 12 10 9 9 9 9 9 9 10 12 15 18 16 15 16
17 16 16 14 12 12 11 10 8 7 7 8 9 9 8 7 6 7 8 9 9 10 11 10 11 13 15 15 12 10 10 10 10 10 9 9 11 14 17 16 14 15
17 17 17 15 14 13 13 11 9 9 9 9 10 8 5 5 7 10 10 11 11 11 11 11 10 10 12 12 11 11 13 13 12 11 10 11 13 15 17 16 14 14
19 17 16 16 16 15 12 10 8 9 10 10 9 6 4 7 10 11 10 9 8 8 10 11 10 10 11 10 10 12 12 12 12 12 13 14 16 18 18 16 15 14
20 18 18 17 16 15 11 8 6 8 10 10 8 5 6 8 9 8 7 6 5 6 7 8 9 10 10 9 10 10 11 12 12 11 13 14 15 17 17 15 15 16
21 20 20 19 16 13 10 7 5 8 10 8 7 6 7 8 8 6 5 4 4 5 6 7 8 9 9 9 9 9 10 11 11 11 13 13 14 15 16 16 18 18
22 21 20 17 15 12 9 7 6 8 9 7 7 8 7 8 7 5 4 4 5 6 7 8 9 9 9 10 10 10 10 12 12 12 14 15 15 15 14 14 16 16
22 21 19 16 14 11 8 8 8 9 10 8 9 9 8 9 8 6 6 6 7 7 7 8 9 10 11 10 10 12 13 12 10 11 14 15 15 14 13 13 13 12
20 19 17 16 14 10 9 10 9 9 9 9 9 9 9 9 8 7 8 8 8 8 8 9 10 11 10 9 11 14 14 11 9 11 14 14 13 13 12 12 10 8
19 17 15 16 14 11 10 11 10 10 9 10 10 9 11 10 8 8 9 8 8 7 7 8 9 10 10 10 11 13 13 11 10 12 13 12 11 9 9 9 7 5
18 17 14 14 14 13 11 10 10 10 9 10 10 9 11 10 8 9 9 9 9 8 7 7 7 8 9 10 11 12 11 11 10 11 11 11 10 7 8 8 7 6
17 17 15 13 13 15 14 10 11 11 10 10 9 9 10 10 9 10 9 9 9 8 8 7 6 7 8 8 9 9 10 9 9 10 10 10 10 9 9 8 8 7
14 14 14 13 13 16 17 13 12 11 11 10 8 8 10 10 9 10 10 9 9 9 9 8 8 8 8 8 8 9 9 9 9 10 10 10 11 11 10 10 9 8
10 11 11 12 14 16 16 15 13 13 12 12 10 8 9 10 10 10 11 11 9 9 10 10 10 10 10 10 10 10 11 11 11 12 11 12 13 12 11 11 9 7
8 9 9 11 13 14 14 15 15 14 14 14 14 12 10 10 10 10 11 12 11 10 11 12 12 12 12 12 12 12 12 13 13 13 13 12 13 13 11 10 9 9
5 7 8 10 12 12 12 14 15 14 13 14 17 17 13 12 12 12 12 13 13 13 13 13 13 13 12 12 13 13 14 15 15 14 14 13 14 15 14 13 13 13
4 4 5 7 9 10 10 11 13 13 12 13 15 17 16 15 15 14 14 15 16 16 15 15 15 15 15 16 17 16 17 18 17 15 16 16 16 17 18 19 19 16
5 4 3 4 5 6 7 8 9 10 12 13 14 16 18 18 18 17 16 16 18 18 17 17 19 20 21 21 20 20 20 21 20 18 18 19 19 19 20 19 17 15
6 4 2 2 3 4 5 6 6 7 8 10 11 13 16 18 20 21 20 20 20 20 18 19 21 23 24 23 23 23 23 23 23 23 22 22 22 22 21 19 17 18
8 5 3 2 0 1 2 3 4 6 8 10 11 12 15 19 23 24 23 23 23 22 21 21 23 24 24 24 24 25 25 25 26 26 27 26 25 25 24 22 21 21
8 7 5 4 3 2 2 3 4 6 8 10 11 11 13 18 21 23 23 24 24 24 23 24 25 26 25 25 25 25 25 26 27 27 28 28 27 27 26 24 24 24
8 7 6 5 4 3 3 4 5 7 8 8 8 9 10 13 16 18 20 21 23 24 24 25 28 28 26 26 26 26 26 27 28 28 28 28 27 27 25 23 24 23
6 6 5 4 3 5 6 5 5 6 8 10 10 9 10 11 13 14 16 17 18 21 23 26 29 29 26 26 27 28 28 28 28 29 29 28 27 24 20 17 17 16
7 6 5 4 3 4 6 6 6 6 7 9 11 11 11 12 13 14 15 15 16 18 20 23 26 26 24 23 25 27 28 28 29 30 30 28 24 19 14 12 13 13
12 10 9 9 8 8 8 7 7 8 8 9 10 12 13 13 14 15 16 16 16 16 17 19 22 22 21 22 25 26 27 29 29 29 27 23 19 15 13 13 14 13
15 12 11 12 14 15 15 14 13 12 12 12 11 12 13 14 15 16 16 17 18 18 19 21 23 22 21 22 23 23 25 26 26 24 23 20 16 15 15 17 16 14
Wind_Direction
202 197 193 183 182 180 174 184 193 187 181 196 202 188 191 200 184 182 185 178 176 155 137 146 150 147 144 145 149 142 136 135 127 123 123 118 117 119 116 116 122 124
197 193 189 179 184 190 183 187 189 180 187 201 206 205 209 214 192 172 161 147 139 130 122 121 133 148 152 156 164 154 134 127 124 125 127 124 125 127 124 123 129 135
191 188 183 177 189 198 191 187 185 183 188 199 212 221 219 191 155 139 138 139 136 131 125 120 123 139 149 156 159 149 141 138 136 137 136 130 129 128 123 120 125 132
186 185 178 181 196 201 193 185 186 189 190 200 215 219 191 166 156 149 148 148 146 138 130 124 123 127 132 140 145 147 149 145 138 140 138 132 132 130 125 127 133 133
181 182 179 189 201 199 188 179 188 194 190 200 209 194 176 168 161 162 161 157 156 151 146 143 138 132 129 133 135 135 137 136 135 140 138 134 138 136 131 131 131 124
179 181 183 195 200 192 185 181 195 194 188 197 193 173 171 164 160 168 168 165 157 145 146 144 138 137 137 132 126 127 133 132 126 127 127 126 128 128 124 124 123 116
180 182 187 196 193 185 189 192 196 194 190 189 174 168 165 152 154 167 160 147 135 129 132 134 137 139 133 126 127 131 129 121 118 127 132 127 122 121 123 128 129 124
184 185 190 195 188 186 195 195 194 193 191 178 167 170 161 151 161 164 148 137 129 129 128 129 133 131 127 134 143 135 121 116 127 140 138 134 133 136 138 137 138 137
187 190 196 194 190 194 191 188 191 195 193 178 174 175 157 158 178 167 151 147 139 136 131 130 136 139 143 154 151 139 130 131 149 155 149 147 149 153 154 152 155 153
183 192 198 191 196 201 185 181 186 194 195 179 177 176 156 164 190 172 158 158 149 145 144 145 154 157 157 157 153 151 150 154 165 165 161 157 154 160 172 176 180 181
182 191 193 190 199 192 175 182 186 188 190 177 176 175 160 170 189 173 169 171 161 160 164 166 171 168 164 161 163 166 168 173 177 172 173 170 162 175 199 203 207 217
183 186 186 188 192 174 167 188 194 184 179 173 177 178 170 179 185 175 179 183 172 171 178 185 184 177 175 175 176 178 180 189 191 187 194 195 190 201 216 223 228 232
187 187 187 187 183 171 170 185 191 181 175 173 180 189 186 185 185 185 186 185 184 184 186 196 199 194 192 189 193 198 196 203 209 208 213 217 219 224 227 233 234 232
184 185 187 180 177 178 180 185 187 180 175 174 178 199 209 196 188 196 194 185 189 196 194 200 207 208 204 200 206 215 215 218 224 227 228 228 232 234 230 235 234 219
167 176 182 181 183 188 188 187 189 188 186 182 178 188 213 210 197 207 207 191 189 202 207 208 212 215 214 213 215 221 229 232 231 236 240 235 238 235 220 221 227 209
158 169 178 188 194 198 196 192 195 200 200 193 183 182 197 212 208 211 218 206 196 202 212 213 215 218 220 224 224 225 234 240 238 242 243 234 234 236 221 208 210 210
138 146 163 183 195 201 201 197 204 214 216 210 197 188 192 205 209 211 222 222 211 207 211 215 216 216 218 226 232 231 232 239 246 250 246 236 233 237 233 218 208 210
112 119 137 161 179 194 196 192 200 211 214 213 208 201 201 207 209 210 217 225 226 222 220 220 221 220 220 223 230 233 231 236 244 247 245 246 244 244 245 238 229 231
72 94 122 152 168 185 194 196 202 208 211 213 214 217 223 223 218 215 216 219 225 227 225 228 230 230 229 228 228 231 233 235 241 245 248 253 253 251 253 256 258 258
51 57 56 46 80 215 237 237 226 219 223 227 221 219 224 225 223 226 228 225 225 226 226 230 234 234 238 243 241 239 240 241 243 247 251 253 254 255 258 264 266 264
44 38 39 33 16 347 305 285 266 245 232 229 225 220 220 222 226 234 239 237 237 237 234 235 238 237 241 248 250 248 248 248 247 248 249 250 252 254 258 267 270 268
40 33 29 18 357 340 325 302 288 278 264 250 244 237 231 231 233 237 242 245 248 249 246 244 246 247 246 247 249 251 251 250 250 250 249 249 251 255 262 268 267 264
24 22 18 10 354 342 329 300 269 272 277 273 268 257 246 246 246 244 246 249 250 252 252 250 250 251 250 249 251 252 251 251 250 251 251 252 256 262 266 261 251 245
340 342 335 318 304 317 316 293 263 262 274 279 281 276 264 255 250 246 249 254 255 257 257 254 253 252 250 250 253 253 251 249 249 250 253 255 257 257 250 232 222 219
319 324 317 301 284 274 274 270 265 266 268 269 274 277 275 268 262 257 255 255 257 261 261 255 252 253 253 252 255 255 249 246 247 249 250 248 242 232 221 218 216 209
304 303 296 288 281 275 271 265 263 264 263 260 260 265 270 271 270 269 262 253 249 251 255 256 255 258 258 255 253 252 248 244 242 239 234 229 221 210 209 218 219 207